Location: El Recuerdo
(3.6589°N, 75.6172°W)
Time: 20:20:22
(UTC+00:00)

Meteor 1-5 Rocket - Pass Details

Date: 14 March 2026
Orbit: 787 x 914 km, 81.2° (Epoch: 11 April)

Event Time Altitude Azimuth Distance (km) Brightness Sun altitude
Rises 00:41:29 0° 220° (SW) 3,536 8.0 -22.5°
Reaches altitude 10° 00:45:04 10° 242° (WSW) 2,599 7.6 -23.4°
Maximum altitude 00:48:21 15° 276° (W) 2,243 7.3 -24.2°
Drops below altitude 10° 00:51:37 10° 310° (NW) 2,590 7.3 -25.1°
Sets 00:55:13 0° 332° (NNW) 3,518 7.8 -26.0°
